Location: Ch?enovice
(49.7164°N, 15.2160°E)
Time: 11:44:51
(UTC+00:00)

USA 267 - Pass Details

Date: 18 November 2025
Orbit: 1100 x 1108 km, 123.0° (Epoch: 21 November)

Event Time Altitude Azimuth Distance (km) Brightness Sun altitude
Rises 04:37:16 0° 57° (ENE) 3,926 6.9 -15.7°
Reaches altitude 10° 04:39:45 10° 57° (ENE) 2,965 6.2 -15.3°
Maximum altitude 04:46:18 83° 331° (NNW) 1,115 3.2 -14.3°
Drops below altitude 10° 04:52:50 10° 245° (WSW) 2,953 5.1 -13.2°
Enters shadow 04:53:26 - 245° (WSW) 3,185 5.2 -13.2°
